Showing default

COSMOS 1743, 16719

Orbit data source: Space-Track

COSMOS 1743, 16719 is a payload satellite owned by GRU (CIS) in LEO that was launched on Thu, 15 May 1986 UTC via a TSIKLON-3 launch vehicle from the Plesetsk Missile And Space Complex (PKMTR). Payload-class satellites include a variety of spacecraft equipped with specific instruments for various scientific and technological missions. These include communications satellites like Starlink; space stations such as the ISS; scientific satellites like the Hubble; Earth observation satellites from companies like Planet Labs, Umbra, and HawkEye 360; GPS; miniature CubeSats for education and research; and military/defense satellites.

Loading next visibility...
Identifier
16719, 1986-034A
Orbit
LEO
Country
Flag of CISCIS
Related business
Manufacturer
Yuzhnoe
Mission
Defense Sigint
Bus & Motor
TSELINA-D, Unknown motor
Mass
1,750 kg wet, 1,750 kg dry
Launch date (UTC)
1986-05-15 (39 years ago)
Launch vehicle
TSIKLON-3
Launch site
Plesetsk Missile And Space Complex (PKMTR)
Object type
Payload
Rocket body
Debris
Shape & HBR
Cyl + 2 Pan, 6.5 m
Radar Cross Section
8.068 m², Large (>1 m²)

Expand to show TLE details & history
Last TLE update: 15 hours ago

TLE from 15 hours ago
0 COSMOS 1743
1 16719U 86034A   25303.22496807  .00037455  00000-0  68476-3 0  9994
2 16719  82.5379 209.6776 0009132  57.5518 302.6615 15.49157441159990
Epoch: 2025-10-30T05:23Z
TLE epoch observation values (Epoch: 2025-10-30T05:23:57.241Z)
Latitude
0.00004°
Longitude
89.90229°
Altitude
418.971 km
Speed
7.662 km/s
True Right ascension
13h 58m 42s
True Declination
0° 00' 00"
Sunlit
Object was in daylight at epoch
Visualization orbit readout
Latitude
Unknown
Longitude
Unknown
Altitude
Unknown
Speed
Unknown
Apparent Right ascension
Unknown
Apparent Declination
Unknown
Sunlit
N/A
Visualization observer readout
Local Sidereal Time
15:52:11
Azimuth
Unknown
Elevation
Unknown
Doppler factor
Unknown
Orbital elements
Apogee altitude
422.324 km
Perigee altitude
409.915 km
Semi-major axis
6,794.256 km
Eccentricity
0.00091
Inclination
82.5379°
RAAN
209.6776°
Arg. of periapsis
57.5518°
True anomaly
302.57335°
Mean anomaly
302.6615°
Eccentric anomaly
302.61743°
Mean motion
3.87552 °/min
Orbital period
92.89 mins
BSTAR
0.00068476
Loading maneuver chart data...
Computing Atmospheric mass density...
Loading historical data...
Loading historical data...
Loading historical data...
Loading historical data...
Loading historical data...
Loading historical data...
Loading historical data...
Other satellites on launch #34 in the year 1986 (1986-05-15 UTC)

Documentation

Showing up to 5 results
|